Regional Weather Roundup
Issued by NWS Boston, MA

Home | Current Version | Previous Version | Text Only | Print | Product List | Glossary On
Versions: 1 2 3 4 5 6 7 8 9 10 11 12 13 14 15 16 17 18 19 20 21 22 23 24 25 26 27 28 29 30 31 32 33 34 35 36 37 38 39 40 41 42 43 44 45 46 47 48 49 50
000
ASUS41 KBOX 221510
RWRBOX

REGIONAL WEATHER ROUNDUP
NATIONAL WEATHER SERVICE TAUNTON MA
1100 AM EDT TUE JUL 22 2014

NOTE:  "FAIR" INDICATES FEW OR NO CLOUDS BELOW 12,000 FEET WITH NO
SIGNIFICANT WEATHER AND/OR OBSTRUCTIONS TO VISIBILITY.  THE FOLLOWING
OBSERVATION LOCATIONS DO NOT REPORT PRESENT WEATHER...PROVINCETOWN...
SMITHFIELD...BLOCK ISLAND...KEENE...AND OXFORD.

MAZALL-221600-
EASTERN MASSACHUSETTS

CITY           SKY/WX    TMP DP  RH WIND       PRES   REMARKS
BOSTON         MOSUNNY   78  66  66 SE7       30.11F
BEVERLY        SUNNY     81  67  62 S5        30.11F
LAWRENCE       SUNNY     81  65  58 VRB3      30.14S
BEDFORD        SUNNY     81  68  64 VRB3      30.11S
BLUE HILL        N/A     80  65  59 SW5       30.13S
NORWOOD        SUNNY     83  65  54 CALM      30.11F
MARSHFIELD     SUNNY     81  66  61 S3        30.13S
PLYMOUTH       SUNNY     79  65  62 SW5       30.13S
TAUNTON        SUNNY     82  67  60 CALM      30.11F
NEW BEDFORD    SUNNY     82  69  64 S6        30.12S
$$

MAZALL-221600-
CAPE COD AND THE ISLANDS

CITY           SKY/WX    TMP DP  RH WIND       PRES   REMARKS
FALMOUTH       SUNNY     77  68  73 W7        30.14S
HYANNIS        SUNNY     77  67  71 S7        30.13S
CHATHAM        SUNNY     73  67  81 VRB7      30.16S
PROVINCETOWN   SUNNY     75  64  69 SW6       30.14S
NANTUCKET      SUNNY     71  64  78 SW8       30.15S
MARTHAS VNYRD  SUNNY     75  66  73 S12       30.15R
$$

MAZALL-221600-
CENTRAL AND WESTERN MASSACHUSETTS

CITY           SKY/WX    TMP DP  RH WIND       PRES   REMARKS
WORCESTER      SUNNY     80  65  59 W8        30.16S
FITCHBURG      SUNNY     86  66  51 NW3       30.13F
ORANGE           N/A    N/A N/A N/A MISG      30.14S
SPRINGFIELD    MOSUNNY   80  67  65 VRB1      30.13S
WESTFIELD      SUNNY     80  67  64 CALM      30.13S
NORTH ADAMS    SUNNY     79  66  64 VRB3      30.13F
PITTSFIELD     SUNNY     78  67  68 SW6       30.16S
$$

RIZALL-221600-
RHODE ISLAND

CITY           SKY/WX    TMP DP  RH WIND       PRES   REMARKS
PROVIDENCE     SUNNY     81  68  64 SW5       30.13S
NEWPORT        SUNNY     78  68  71 VRB3      30.13F
BLOCK ISLAND   SUNNY     77  64  65 W12       30.16S
SMITHFIELD     SUNNY     81  66  61 CALM      30.15F
WESTERLY       SUNNY     77  65  66 SW9       30.15S
$$

CTZALL-221600-
CONNECTICUT

CITY           SKY/WX    TMP DP  RH WIND       PRES   REMARKS
BRADLEY INTL   MOSUNNY   82  66  58 VRB3      30.12F
HARTFORD       SUNNY     81  66  60 S6        30.12F
BRIDGEPORT     SUNNY     78  67  68 SW12      30.15S
DANBURY        SUNNY     80  67  64 W8        30.17S
GROTON         SUNNY     76  67  73 SW9       30.13F
NEW HAVEN      SUNNY     78  68  71 SW9       30.15S
CHESTER        FAIR      81  66  61 SW6       30.16S
MERIDEN        SUNNY     82  66  58 CALM      30.13F
WILLIMANTIC    SUNNY     82  67  60 VRB3      30.14S
OXFORD         SUNNY     79  66  65 VRB5      30.18F
$$

MEZ002-015-021-024-NHZ003-005-008-011-012-014-VTZ005-008-221600-
NORTHERN NEW ENGLAND

CITY           SKY/WX    TMP DP  RH WIND       PRES   REMARKS
PORTLAND ME    MOSUNNY   80  64  58 CALM      30.12R
BANGOR ME      MOSUNNY   78  63  59 VRB6      30.09F
CONCORD NH     SUNNY     81  65  58 CALM      30.12S
MANCHESTER NH  MOSUNNY   82  65  56 W6        30.10F
NASHUA NH      MOSUNNY   82  65  56 NW5       30.12F
PORTSMOUTH NH  MOSUNNY   80  66  61 VRB3      30.11S
JAFFREY NH     SUNNY     80  63  55 VRB6      30.16S
KEENE NH       SUNNY     79  61  53 CALM      30.14S
BURLINGTON VT  MOSUNNY   83  65  54 SW8       30.09F
MT. WASHINGTON FOG       54  54 100 W26G36      N/A  VSB 1/16
$$

NYZ052-076-221600-
EASTERN NEW YORK

CITY           SKY/WX    TMP DP  RH WIND       PRES   REMARKS
ALBANY         MOSUNNY   81  67  62 CALM      30.13S
NEW YORK CITY  MOSUNNY   83  65  54 SW6       30.14F
$$

ANZALL-221600-
MARINE OBSERVATIONS

STATION/POSITION TIME  TEMP    WIND        PRES    VSBY  WAVE
                       AIR SEA DIR/SP/G                  HT/PER
                 (UTC) (F)     (DEG/KT/KT) (MB)    (MI)  (FT/S)
BOSTON BUOY      NOT AVBL
BUZZARDS BAY     NOT AVBL
NANTUCKET SOUND  NOT AVBL
MASS BAY-STELLWA NOT AVBL
ISLE OF SHOALS   NOT AVBL
S OF BLOCK IS    NOT AVBL
$$

......................KEY.........................
  SKY/WX - SKY CONDITION/PRESENT WEATHER
  TMP    - TEMPERATURE IN FAHRENHEIT
  DWPT   - DEWPOINT IN FAHRENHEIT
  RH     - RELATIVE HUMIDITY IN PERCENT
  WIND   - DIRECTION AND SPEED IN MPH
  PRES   - MEAN SEA LEVEL PRESSURE IN INCHES OF HG
  WCI    - WIND CHILL INDEX
  VSB    - VISIBILITY IN MILES
  HX     - HEAT INDEX
  TC     - TEMPERATURE IN CELSIUS
  VRB    - VARIABLE WIND DIRECTION
  N/A    - NOT AVAILABLE



USA.gov is the U.S. government's official web portal to all federal, state and local government web resources and services.